Wind_Speed
43 45 46 46 46 46 47 46 45 43 44 43 43 41 39 39 39 39 37 35 34 33 32 31 30 29 28 27 25 24 23 23 23 22 22 23 23 23
38 42 44 46 46 47 48 48 47 46 45 44 44 43 42 39 39 40 39 37 35 34 32 31 31 30 29 28 27 26 26 25 24 24 24 24 24 24
34 37 41 44 45 47 48 48 49 49 47 47 46 44 43 40 39 39 40 39 37 36 34 33 32 32 31 30 29 29 27 26 26 26 25 25 25 25
30 34 37 41 43 45 47 48 49 49 48 49 49 47 45 42 40 40 40 39 38 37 36 35 34 33 32 32 32 30 29 28 27 26 25 25 25 25
28 31 34 37 40 42 45 46 48 48 48 49 50 49 48 45 42 42 42 42 41 40 38 37 37 36 35 34 32 31 30 29 27 26 25 25 24 25
24 28 31 33 36 39 42 44 46 47 47 48 49 49 48 47 45 43 43 43 43 42 41 40 40 39 37 36 34 32 30 29 27 26 25 25 25 25
22 24 27 30 32 34 38 41 44 45 46 47 48 48 47 46 46 45 44 45 44 43 43 43 42 41 39 38 36 33 31 29 27 26 25 25 25 24
20 22 24 27 29 31 33 36 40 43 44 45 47 47 45 46 47 46 44 44 43 42 41 41 41 41 40 39 36 34 32 30 27 27 26 26 24 23
18 20 21 23 25 27 29 32 34 37 40 41 43 44 45 45 46 46 44 43 43 41 41 41 40 40 40 38 36 35 33 30 28 26 26 25 24 22
14 16 18 19 21 23 25 27 29 31 35 38 39 39 41 43 43 43 43 42 41 41 41 42 41 40 38 36 35 33 31 29 28 26 25 24 23 22
10 12 15 17 18 21 23 25 26 27 30 32 34 36 37 37 38 39 39 39 40 41 41 40 39 38 35 33 32 31 29 28 27 26 25 24 23 21
6 8 11 13 15 18 19 22 23 25 26 28 30 32 35 35 36 36 37 38 37 37 38 36 35 35 34 32 31 31 29 28 27 26 25 23 22 20
6 4 6 9 11 14 16 18 20 23 23 24 27 29 32 33 33 34 36 36 35 34 35 35 34 33 33 32 30 29 27 26 26 25 24 23 21 20
7 4 3 6 8 10 12 13 15 18 20 21 23 25 27 30 31 31 32 33 34 33 32 31 31 31 31 30 28 26 25 25 24 24 23 21 20 20
9 6 2 3 6 8 9 10 11 13 16 19 20 22 24 26 29 29 29 30 30 31 30 29 29 29 28 27 26 25 25 24 24 23 22 21 20 20
10 7 3 1 3 5 7 9 10 12 13 16 18 20 22 23 25 26 27 28 28 28 28 28 27 27 26 26 25 25 24 24 23 22 21 21 21 20
11 8 5 2 1 3 5 7 9 9 11 13 15 18 20 21 22 24 25 26 27 26 26 26 26 25 25 25 24 24 23 23 22 21 21 20 19 19
11 8 5 3 2 3 4 5 7 9 11 12 14 15 18 20 22 24 24 25 25 25 25 25 25 24 23 23 22 21 21 21 21 21 20 20 19 19
11 8 5 3 2 3 3 5 6 8 10 12 13 14 16 18 20 21 23 23 24 24 24 24 24 23 22 22 22 21 20 20 20 20 19 19 19 18
10 8 6 4 3 4 4 5 6 7 10 11 13 14 15 16 18 19 21 22 22 22 23 22 22 22 21 21 21 21 20 20 20 19 19 19 18 18
10 8 7 5 4 5 6 6 6 7 9 10 12 13 14 16 17 17 17 19 20 20 21 21 21 21 21 21 21 21 20 20 19 19 19 19 18 18
12 10 8 7 6 6 7 7 8 9 9 10 11 13 14 15 16 17 17 18 19 19 20 20 20 20 20 20 19 20 20 20 19 19 19 18 18 18
15 13 12 10 9 8 8 9 10 11 11 12 13 14 15 15 16 17 18 19 19 20 20 20 20 20 20 20 19 19 20 20 20 19 19 19 19 19
Wind_Direction
242 241 240 239 239 239 238 237 235 235 235 234 235 235 236 235 235 234 235 237 239 240 242 244 245 246 247 250 252 255 258 263 268 273 278 281 285 289
243 241 239 238 238 238 238 237 235 235 235 233 233 233 235 235 234 235 235 236 238 240 241 242 243 245 247 248 250 254 258 262 266 272 277 280 284 287
244 242 240 239 238 237 237 237 236 236 236 234 232 233 233 233 233 233 234 234 237 239 240 241 243 245 246 248 250 252 255 259 265 271 274 280 284 286
246 243 241 239 238 237 236 236 237 236 235 235 234 234 233 234 233 233 233 233 237 239 239 240 242 244 246 247 250 251 253 257 263 269 273 279 282 285
249 245 241 239 238 236 235 235 235 236 235 235 235 235 236 234 234 233 234 234 236 238 238 239 242 244 245 248 248 249 251 256 260 266 271 276 280 284
253 246 242 240 237 235 234 233 234 235 235 236 236 236 237 234 233 233 234 234 237 237 237 239 241 243 244 246 246 248 250 253 257 264 269 275 278 281
256 248 243 239 237 235 233 234 234 235 236 237 236 237 237 236 234 233 233 234 235 235 236 238 241 242 244 246 247 247 248 253 258 263 269 273 275 277
257 251 245 240 237 236 235 233 233 233 234 235 236 236 235 234 234 234 234 233 235 236 237 238 241 241 243 244 245 246 248 252 256 261 266 269 270 273
259 250 244 241 236 234 233 232 232 231 231 233 233 233 233 233 232 233 234 234 234 235 236 237 238 239 240 241 243 245 247 251 254 258 262 264 266 269
264 251 244 242 238 233 231 229 230 230 230 230 231 230 232 233 233 233 234 235 236 236 237 237 237 238 239 240 242 243 247 250 252 255 257 260 262 265
276 255 242 239 237 232 230 227 228 229 228 228 229 229 230 231 230 231 231 234 234 234 234 235 235 235 236 238 241 243 244 247 249 252 255 256 258 257
301 261 244 238 232 228 228 227 227 226 226 226 227 228 229 230 229 228 230 232 232 232 231 230 231 232 234 236 240 242 243 246 247 250 252 254 254 252
344 289 248 238 232 228 230 230 229 226 226 224 223 224 224 224 223 223 225 227 228 229 229 228 229 229 232 235 240 241 242 244 245 247 249 249 249 248
8 343 263 239 231 225 228 231 231 227 224 223 220 219 219 219 220 219 220 222 224 225 224 226 228 230 232 235 237 239 239 241 243 244 245 247 247 245
17 12 346 243 229 221 219 225 226 223 220 219 217 215 213 215 217 217 218 217 218 220 221 224 226 229 231 233 235 236 236 237 238 240 242 242 242 243
21 19 15 314 229 224 223 223 221 218 216 214 213 211 211 212 212 212 213 212 214 217 219 221 224 227 229 230 232 234 235 236 238 238 239 239 240 239
17 17 13 353 267 235 233 230 224 218 212 210 210 208 209 210 210 210 211 213 216 216 216 216 218 222 223 226 231 233 234 233 234 235 236 237 236 234
11 13 8 346 291 260 242 230 225 219 213 209 209 208 206 206 206 208 210 210 210 211 213 215 216 220 224 226 226 227 228 229 230 231 233 233 232 231
3 2 356 339 292 266 251 237 226 217 212 212 212 208 203 204 204 206 208 209 211 212 214 216 217 220 222 221 223 224 225 226 228 228 228 228 229 231
349 349 343 325 292 269 254 244 234 223 214 211 210 208 205 206 205 205 205 206 208 210 212 215 218 220 220 220 221 222 224 225 225 225 226 227 229 232
330 329 325 316 290 265 252 239 231 221 214 212 207 207 207 205 204 205 205 206 208 210 213 215 217 218 218 219 219 221 222 222 223 225 226 228 232 235
306 305 301 295 285 263 247 236 229 223 218 214 208 206 206 206 205 205 208 208 208 210 211 212 214 215 216 216 218 219 221 222 223 225 228 231 234 237
287 286 282 275 267 258 247 239 231 225 221 218 215 211 210 210 208 208 208 209 209 209 209 211 213 214 216 217 219 220 221 223 226 229 232 234 237 241
Height
5767 5771 5775 5779 5784 5788 5793 5797 5802 5806 5811 5815 5819 5823 5827 5831 5836 5839 5844 5847 5850 5853 5856 5859 5861 5863 5865 5867 5868 5869 5870 5870 5870 5870 5870 5869 5868 5867
5757 5761 5764 5768 5773 5778 5782 5787 5791 5796 5801 5805 5809 5814 5818 5822 5827 5831 5835 5839 5842 5846 5849 5852 5854 5857 5859 5860 5862 5863 5864 5864 5865 5864 5864 5863 5862 5861
5748 5751 5754 5758 5762 5767 5771 5776 5781 5786 5791 5795 5800 5804 5809 5813 5818 5822 5827 5831 5835 5838 5842 5845 5847 5849 5851 5853 5855 5856 5857 5858 5858 5858 5858 5858 5856 5855
5740 5742 5745 5748 5752 5756 5761 5766 5770 5776 5781 5785 5790 5794 5799 5804 5809 5813 5818 5822 5826 5830 5834 5837 5839 5842 5844 5846 5848 5849 5850 5851 5852 5852 5852 5851 5850 5849
5731 5733 5735 5738 5742 5746 5750 5755 5760 5765 5770 5775 5780 5785 5789 5794 5799 5804 5809 5813 5818 5822 5825 5828 5831 5834 5836 5838 5840 5842 5843 5844 5845 5846 5845 5845 5844 5843
5723 5724 5726 5729 5732 5736 5740 5745 5749 5755 5759 5764 5769 5775 5779 5784 5790 5795 5800 5804 5809 5813 5816 5820 5823 5825 5828 5830 5832 5834 5835 5837 5838 5838 5838 5838 5837 5836
5716 5716 5718 5720 5723 5726 5730 5735 5740 5745 5749 5754 5760 5765 5770 5775 5781 5786 5790 5795 5799 5803 5808 5811 5814 5817 5819 5822 5824 5825 5827 5829 5830 5831 5831 5831 5831 5830
5709 5709 5711 5713 5715 5719 5722 5726 5730 5735 5740 5745 5750 5755 5761 5766 5771 5776 5780 5785 5790 5795 5799 5802 5805 5808 5811 5813 5815 5817 5819 5821 5822 5823 5824 5824 5824 5824
5702 5703 5704 5706 5708 5711 5714 5717 5721 5725 5731 5736 5741 5746 5752 5757 5762 5767 5771 5776 5781 5786 5789 5792 5796 5799 5802 5804 5807 5809 5811 5813 5814 5816 5817 5817 5817 5817
5696 5697 5699 5700 5702 5705 5708 5711 5714 5718 5723 5728 5733 5738 5742 5747 5752 5758 5762 5767 5771 5776 5780 5784 5787 5790 5793 5796 5798 5801 5803 5805 5807 5808 5810 5810 5811 5811
5692 5693 5694 5696 5698 5700 5703 5705 5708 5711 5715 5719 5724 5729 5734 5739 5744 5749 5754 5758 5762 5766 5771 5775 5778 5781 5785 5788 5790 5793 5795 5798 5800 5801 5803 5803 5804 5804
5690 5690 5691 5692 5694 5696 5699 5701 5704 5707 5710 5713 5717 5721 5726 5731 5736 5741 5746 5751 5755 5759 5763 5767 5770 5773 5777 5780 5783 5786 5789 5791 5792 5794 5796 5797 5798 5799
5690 5689 5689 5690 5691 5694 5695 5697 5699 5702 5704 5707 5711 5714 5719 5724 5729 5733 5738 5743 5748 5752 5756 5760 5763 5767 5771 5774 5776 5779 5781 5784 5785 5787 5789 5790 5791 5793
5691 5690 5689 5689 5690 5692 5694 5695 5696 5698 5701 5703 5706 5709 5713 5718 5723 5727 5731 5736 5740 5745 5749 5752 5756 5760 5764 5767 5770 5772 5774 5777 5779 5781 5782 5784 5785 5787
5694 5692 5690 5690 5690 5691 5692 5694 5695 5696 5698 5700 5702 5705 5708 5713 5717 5721 5725 5729 5733 5737 5741 5746 5750 5753 5757 5760 5763 5766 5768 5770 5772 5775 5776 5778 5780 5782
5697 5694 5693 5692 5691 5691 5692 5693 5693 5695 5696 5697 5699 5701 5704 5708 5712 5716 5720 5724 5728 5732 5736 5739 5744 5747 5751 5754 5757 5760 5762 5764 5767 5769 5771 5773 5774 5776
5699 5697 5695 5694 5693 5692 5692 5692 5693 5693 5694 5695 5697 5699 5702 5705 5708 5712 5715 5719 5723 5727 5731 5734 5738 5741 5745 5748 5751 5754 5756 5758 5761 5763 5765 5767 5769 5771
5701 5698 5697 5695 5694 5694 5693 5693 5693 5693 5694 5695 5696 5697 5699 5702 5705 5709 5712 5716 5719 5723 5726 5730 5734 5737 5740 5743 5746 5748 5751 5753 5756 5758 5760 5762 5764 5766
5703 5700 5698 5696 5695 5694 5694 5693 5693 5693 5693 5694 5695 5696 5698 5700 5703 5706 5709 5712 5716 5719 5722 5726 5729 5732 5735 5738 5741 5744 5746 5749 5751 5753 5755 5758 5760 5762
5703 5701 5699 5697 5695 5694 5694 5693 5693 5693 5693 5693 5694 5695 5697 5699 5701 5704 5706 5709 5712 5715 5719 5722 5725 5728 5731 5734 5736 5739 5742 5744 5746 5749 5751 5753 5755 5757
5703 5700 5698 5697 5695 5694 5693 5693 5692 5692 5692 5693 5693 5694 5696 5697 5700 5702 5704 5706 5709 5712 5715 5718 5721 5723 5726 5729 5732 5735 5737 5739 5742 5744 5747 5748 5750 5752
5701 5699 5697 5696 5694 5693 5692 5692 5691 5691 5691 5692 5693 5694 5695 5696 5698 5700 5702 5704 5707 5709 5712 5714 5717 5720 5722 5725 5728 5730 5733 5735 5737 5739 5742 5744 5745 5747
5698 5697 5695 5693 5692 5691 5690 5690 5690 5690 5690 5690 5691 5692 5693 5695 5696 5698 5700 5702 5704 5706 5709 5711 5714 5716 5719 5721 5724 5726 5728 5731 5733 5735 5737 5738 5740 5741